Location: *
(43.0409°N, 0.1694°E)
Time: 22:12:58
(UTC+00:00)

BREEZE-M DEB (TANK) - Pass Details

Date: 03 October 2023
Orbit: 304 x 14041 km, 49.6° (Epoch: 04 December)

Event Time Altitude Azimuth Distance (km) Brightness Sun altitude
Exits shadow 03:31:17 49° 179° (S) 1,194 4.0 -27.2°
Maximum altitude 03:32:25 59° 134° (SE) 1,249 4.4 -27.0°
Drops below altitude 10° 03:46:36 10° 60° (ENE) 6,629 9.1 -24.6°
Sets 03:56:18 0° 59° (ENE) 9,930 10.3 -22.9°
